• In Deutschland
  • Länderverzeichnis
  • Für 7 Tage
  • Wassertemperatur
  • Satellitenkarten
  • Wetterkarte
  • Widgets
  • user-avatar
    Anmelden

    Stündliche Wetter Nuoro

    Heute, 22 Juni, Freitag

    Zeit Temperatur Niederschläge Wind Luftdruck Luftfeuchtigkeit
    00:00 +19°C° 0 mm 1 m/S 717 mmHg 76%
    01:00 +19°C° 0 mm 1 m/S 717 mmHg 76%
    02:00 +19°C° 0 mm 1 m/S 717 mmHg 76%
    03:00 +18°C° 0 mm 2 m/S 716 mmHg 76%
    04:00 +17°C° 0 mm 2 m/S 716 mmHg 76%
    05:00 +19°C° 0 mm 2 m/S 716 mmHg 72%
    06:00 +20°C° 0 mm 2 m/S 716 mmHg 68%
    07:00 +23°C° 0 mm 2 m/S 716 mmHg 62%
    08:00 +25°C° 0 mm 2 m/S 717 mmHg 55%
    09:00 +27°C° 0 mm 2 m/S 717 mmHg 48%
    10:00 +29°C° 0 mm 2 m/S 717 mmHg 41%
    11:00 +29°C° 0 mm 3 m/S 717 mmHg 40%
    12:00 +30°C° 0 mm 3 m/S 717 mmHg 40%
    13:00 +32°C° 0 mm 4 m/S 717 mmHg 40%
    14:00 +30°C° 0 mm 4 m/S 716 mmHg 42%
    15:00 +29°C° 0 mm 5 m/S 716 mmHg 44%
    16:00 +29°C° 0 mm 5 m/S 716 mmHg 46%
    17:00 +27°C° 0 mm 4 m/S 715 mmHg 49%
    18:00 +25°C° 0 mm 4 m/S 715 mmHg 52%
    19:00 +24°C° 0 mm 3 m/S 715 mmHg 55%
    20:00 +21°C° 0 mm 3 m/S 715 mmHg 62%
    21:00 +19°C° 0 mm 3 m/S 715 mmHg 69%
    22:00 +17°C° 0 mm 3 m/S 715 mmHg 76%
    23:00 +17°C° 0 mm 3 m/S 715 mmHg 78%

    Morgen, 23 Juni, Samstag

    Zeit Temperatur Niederschläge Wind Luftdruck Luftfeuchtigkeit
    00:00 +17°C° 0 mm 3 m/S 715 mmHg 80%
    01:00 +16°C° 0 mm 3 m/S 715 mmHg 81%
    02:00 +16°C° 0 mm 2 m/S 714 mmHg 83%
    03:00 +16°C° 0 mm 2 m/S 714 mmHg 86%
    04:00 +15°C° 0 mm 2 m/S 714 mmHg 88%
    05:00 +17°C° 0 mm 2 m/S 715 mmHg 83%
    06:00 +18°C° 0 mm 2 m/S 715 mmHg 77%
    07:00 +20°C° 0 mm 2 m/S 715 mmHg 72%
    08:00 +21°C° 0 mm 2 m/S 716 mmHg 69%
    09:00 +23°C° 0 mm 2 m/S 716 mmHg 66%
    10:00 +25°C° 0 mm 3 m/S 716 mmHg 63%
    11:00 +26°C° 0 mm 3 m/S 717 mmHg 60%
    12:00 +27°C° 0 mm 4 m/S 717 mmHg 56%
    13:00 +28°C° 0 mm 4 m/S 717 mmHg 53%
    14:00 +27°C° 0 mm 4 m/S 717 mmHg 52%
    15:00 +27°C° 0 mm 4 m/S 717 mmHg 52%
    16:00 +27°C° 0 mm 4 m/S 717 mmHg 51%
    17:00 +26°C° 0 mm 4 m/S 716 mmHg 56%
    18:00 +25°C° 0 mm 3 m/S 716 mmHg 61%
    19:00 +24°C° 0 mm 3 m/S 716 mmHg 66%
    20:00 +23°C° 0 mm 2 m/S 716 mmHg 73%
    21:00 +20°C° 0 mm 2 m/S 717 mmHg 81%
    22:00 +18°C° 0 mm 2 m/S 717 mmHg 88%
    23:00 +18°C° 0 mm 2 m/S 717 mmHg 90%

    übermorgen, 24 Juni, Sonntag

    Zeit Temperatur Niederschläge Wind Luftdruck Luftfeuchtigkeit
    00:00 +18°C° 0 mm 2 m/S 717 mmHg 91%
    01:00 +17°C° 0 mm 2 m/S 716 mmHg 92%
    02:00 +17°C° 0 mm 2 m/S 716 mmHg 93%
    03:00 +18°C° 0 mm 1 m/S 716 mmHg 93%
    04:00 +18°C° 0 mm 1 m/S 716 mmHg 93%
    05:00 +19°C° 0 mm 1 m/S 716 mmHg 88%
    06:00 +20°C° 0 mm 1 m/S 716 mmHg 82%
    07:00 +21°C° 0 mm 1 m/S 717 mmHg 76%
    08:00 +23°C° 0 mm 1 m/S 717 mmHg 68%
    09:00 +25°C° 0 mm 1 m/S 717 mmHg 59%
    10:00 +27°C° 0 mm 1 m/S 717 mmHg 51%
    11:00 +27°C° 0,3 mm 2 m/S 717 mmHg 51%
    12:00 +27°C° 0,3 mm 2 m/S 717 mmHg 51%
    13:00 +27°C° 0,3 mm 2 m/S 717 mmHg 51%
    14:00 +26°C° 0,9 mm 2 m/S 717 mmHg 53%
    15:00 +26°C° 0,9 mm 2 m/S 717 mmHg 54%
    16:00 +25°C° 0,9 mm 2 m/S 717 mmHg 56%
    17:00 +24°C° 1,1 mm 2 m/S 716 mmHg 61%
    18:00 +23°C° 1,1 mm 2 m/S 716 mmHg 67%
    19:00 +22°C° 1,1 mm 1 m/S 716 mmHg 72%
    20:00 +21°C° 0,8 mm 1 m/S 716 mmHg 77%
    21:00 +19°C° 0,8 mm 1 m/S 716 mmHg 82%
    22:00 +18°C° 0,8 mm 1 m/S 716 mmHg 88%
    23:00 +18°C° 0,2 mm 1 m/S 716 mmHg 88%

    25 Juni, Montag

    Zeit Temperatur Niederschläge Wind Luftdruck Luftfeuchtigkeit
    00:00 +16°C° 0,2 mm 1 m/S 715 mmHg 89%
    01:00 +16°C° 0,2 mm 1 m/S 715 mmHg 90%
    02:00 +16°C° 0,1 mm 2 m/S 715 mmHg 90%
    03:00 +16°C° 0,1 mm 2 m/S 715 mmHg 90%
    04:00 +16°C° 0,1 mm 2 m/S 715 mmHg 90%
    05:00 +17°C° 0 mm 2 m/S 715 mmHg 84%
    06:00 +18°C° 0 mm 2 m/S 715 mmHg 79%
    07:00 +19°C° 0 mm 2 m/S 715 mmHg 74%
    08:00 +21°C° 0 mm 2 m/S 716 mmHg 64%
    09:00 +23°C° 0 mm 2 m/S 716 mmHg 55%
    10:00 +25°C° 0 mm 3 m/S 717 mmHg 46%
    11:00 +26°C° 0 mm 3 m/S 717 mmHg 43%
    12:00 +27°C° 0 mm 3 m/S 717 mmHg 41%
    13:00 +28°C° 0 mm 3 m/S 717 mmHg 39%
    14:00 +27°C° 0 mm 3 m/S 717 mmHg 40%
    15:00 +27°C° 0 mm 3 m/S 717 mmHg 42%
    16:00 +26°C° 0 mm 3 m/S 717 mmHg 43%
    17:00 +25°C° 0 mm 3 m/S 717 mmHg 48%
    18:00 +24°C° 0 mm 3 m/S 717 mmHg 52%
    19:00 +23°C° 0 mm 2 m/S 717 mmHg 56%
    20:00 +20°C° 0 mm 2 m/S 717 mmHg 61%
    21:00 +19°C° 0 mm 2 m/S 717 mmHg 67%
    22:00 +17°C° 0 mm 2 m/S 718 mmHg 73%
    23:00 +17°C° 0 mm 2 m/S 717 mmHg 72%

    26 Juni, Dienstag

    Zeit Temperatur Niederschläge Wind Luftdruck Luftfeuchtigkeit
    00:00 +17°C° 0 mm 2 m/S 717 mmHg 72%
    01:00 +16°C° 0 mm 2 m/S 717 mmHg 72%
    02:00 +16°C° 0 mm 2 m/S 717 mmHg 73%
    03:00 +16°C° 0 mm 2 m/S 717 mmHg 74%
    04:00 +16°C° 0 mm 2 m/S 716 mmHg 75%
    05:00 +17°C° 0 mm 3 m/S 717 mmHg 71%
    06:00 +18°C° 0 mm 4 m/S 717 mmHg 66%
    07:00 +20°C° 0 mm 4 m/S 717 mmHg 62%
    08:00 +21°C° 0 mm 5 m/S 717 mmHg 56%
    09:00 +23°C° 0 mm 5 m/S 718 mmHg 49%
    10:00 +25°C° 0 mm 5 m/S 718 mmHg 43%
    11:00 +26°C° 0 mm 5 m/S 718 mmHg 40%
    12:00 +26°C° 0 mm 6 m/S 718 mmHg 38%
    13:00 +27°C° 0 mm 6 m/S 718 mmHg 35%
    14:00 +27°C° 0 mm 5 m/S 718 mmHg 35%
    15:00 +27°C° 0 mm 5 m/S 717 mmHg 35%
    16:00 +27°C° 0 mm 5 m/S 717 mmHg 35%
    17:00 +26°C° 0 mm 5 m/S 717 mmHg 39%
    18:00 +23°C° 0 mm 4 m/S 717 mmHg 43%
    19:00 +22°C° 0 mm 4 m/S 717 mmHg 46%
    20:00 +21°C° 0 mm 3 m/S 717 mmHg 53%
    21:00 +19°C° 0 mm 3 m/S 717 mmHg 59%
    22:00 +17°C° 0 mm 2 m/S 717 mmHg 66%
    23:00 +17°C° 0 mm 2 m/S 717 mmHg 69%

    27 Juni, Mittwoch

    Zeit Temperatur Niederschläge Wind Luftdruck Luftfeuchtigkeit
    00:00 +17°C° 0 mm 2 m/S 717 mmHg 72%
    01:00 +16°C° 0 mm 2 m/S 717 mmHg 75%
    02:00 +16°C° 0 mm 3 m/S 716 mmHg 76%
    03:00 +16°C° 0 mm 3 m/S 716 mmHg 77%
    04:00 +14°C° 0 mm 3 m/S 716 mmHg 78%
    05:00 +17°C° 0 mm 3 m/S 716 mmHg 72%
    06:00 +18°C° 0 mm 3 m/S 717 mmHg 67%
    07:00 +20°C° 0 mm 4 m/S 717 mmHg 61%
    08:00 +21°C° 0 mm 4 m/S 717 mmHg 56%
    09:00 +23°C° 0 mm 4 m/S 717 mmHg 51%
    10:00 +25°C° 0 mm 5 m/S 717 mmHg 47%
    11:00 +26°C° 0 mm 5 m/S 717 mmHg 44%
    12:00 +27°C° 0 mm 5 m/S 717 mmHg 42%
    13:00 +28°C° 0 mm 5 m/S 717 mmHg 39%
    14:00 +28°C° 0 mm 5 m/S 717 mmHg 38%
    15:00 +28°C° 0 mm 4 m/S 717 mmHg 37%
    16:00 +28°C° 0 mm 4 m/S 717 mmHg 37%
    17:00 +26°C° 0 mm 4 m/S 717 mmHg 40%
    18:00 +25°C° 0 mm 3 m/S 717 mmHg 44%
    19:00 +24°C° 0 mm 2 m/S 717 mmHg 48%
    20:00 +21°C° 0 mm 2 m/S 717 mmHg 54%
    21:00 +20°C° 0 mm 2 m/S 717 mmHg 59%
    22:00 +18°C° 0 mm 2 m/S 717 mmHg 64%
    23:00 +18°C° 0 mm 2 m/S 716 mmHg 66%
    Mehr zeigen